Tracking 25689 objects as of 7-Jul-2022
HD Live streaming from Space Station
objects crossing your sky now

FENGYUN 1C DEB

Track FENGYUN 1C DEB now!
10-day predictions


NORAD ID: 30417
Int'l Code: 1999-025AEG
Perigee: 809.5 km
Apogee: 906.8 km
Inclination: 98.7 °
Period: 102.0 minutes
Semi major axis: 7229 km
RCS: 0.0259 m2 (small)
Launch date: May 10, 1999
Source: People's Republic of China (PRC)
Launch site: Taiyaun Space Center, China (TSC)

Note: This is SATELLITE DEBRIS
aabbcc
Your satellite tracking list
Your tracking list is empty




NASA's NSSDC Master Catalog

Two Line Element Set (TLE):
1 30417U 99025AEG 22187.83312193  .00000182  00000-0  11855-3 0  9994
2 30417  98.6585 200.7688 0067318 101.5010  74.8850 14.12441412796831
Source of the keplerian elements: AFSPC